Dewpoint
73 73 73 73 75 73 72 68 53 57 55 52 53 56 53 58 58 58 52 56 52 58 55 56 58 56 59 57 60 62 63 57 62 52 49 61 69 70 71 72 72 73 73 74 75 75 75 75 75 75 75 75 75 75 75 75 75 75 75 75 75 75 75 75 76 75 75 74 74 75 75 75 76 75 75 75 75 74 75 75 75 75 75 76 75 75 76 76 76 76 76 76 76 76 76 75 75
70 72 71 73 74 71 65 66 56 54 54 51 54 57 56 58 57 54 51 58 50 54 57 57 58 60 61 61 61 59 60 64 64 64 66 68 69 70 71 71 72 73 73 74 74 75 75 76 76 75 75 75 75 75 74 75 75 75 75 75 75 75 75 76 76 75 75 75 75 74 75 75 75 75 75 75 75 75 75 75 76 76 75 75 75 76 76 75 76 76 76 75 76 76 76 75 75
70 73 73 74 73 69 67 65 53 52 49 48 53 56 58 56 56 54 57 53 55 56 57 57 57 58 58 58 57 59 58 64 65 65 65 68 67 69 71 71 72 73 73 74 74 74 75 75 76 75 75 75 75 75 75 75 75 75 75 74 74 75 75 75 76 75 75 75 75 75 75 75 75 75 75 75 75 75 76 76 76 75 75 75 75 75 75 75 75 76 76 76 76 76 75 75 76
69 75 72 72 65 69 60 60 57 52 49 50 51 56 58 56 53 55 56 51 54 55 55 55 56 58 58 57 59 61 61 63 65 65 65 67 67 69 71 71 73 73 73 73 74 74 75 75 75 75 75 75 75 75 75 75 75 75 75 75 75 75 75 75 75 75 75 74 75 75 75 75 75 75 75 75 75 75 75 75 75 75 75 75 75 75 75 75 75 76 76 76 76 76 75 75 75
67 76 74 71 65 60 60 58 57 56 51 52 50 55 56 56 56 57 54 51 52 54 54 55 55 58 60 60 59 59 61 64 65 66 66 67 69 70 70 71 72 72 73 73 74 74 75 75 75 75 75 75 75 75 75 75 75 75 75 75 75 75 75 75 75 74 74 74 75 75 75 75 75 75 75 75 76 75 75 75 75 75 74 75 74 74 75 74 74 75 75 75 75 75 75 76 76
69 72 74 71 64 65 62 56 55 55 57 58 55 55 57 57 58 57 49 51 55 55 54 54 54 55 56 58 60 61 63 61 65 66 66 67 69 69 70 72 72 71 72 73 74 74 75 75 76 76 76 76 75 75 75 75 75 75 75 75 75 75 75 75 75 74 74 74 75 75 75 75 75 76 75 75 75 75 75 75 75 74 74 74 74 74 74 75 74 74 75 75 75 75 76 76 76
70 70 69 68 67 66 56 56 55 56 59 60 58 58 58 58 60 59 49 52 54 55 56 55 56 56 56 59 60 62 63 65 64 65 66 67 68 69 70 70 70 71 72 73 74 75 75 75 75 76 75 75 75 75 74 74 75 75 75 75 75 75 74 74 75 75 74 75 75 75 75 75 75 76 76 76 75 75 75 75 75 74 74 74 75 75 75 75 75 74 75 75 75 75 76 75 76
73 67 66 61 59 59 56 57 56 58 59 61 61 60 59 60 61 59 53 50 51 53 56 56 57 56 56 58 58 62 64 63 65 65 66 67 66 68 68 69 71 72 73 74 75 75 76 76 75 75 76 75 75 75 75 74 75 75 75 75 75 74 74 74 74 74 75 75 75 75 75 75 75 75 75 75 75 75 75 75 75 75 75 74 75 75 75 75 75 75 75 75 75 76 76 75 75
71 70 68 60 57 57 55 55 56 61 62 63 61 63 63 62 63 62 58 54 56 56 56 56 57 55 55 60 60 62 62 64 65 67 66 65 66 67 69 70 71 72 73 74 74 75 75 75 76 75 75 75 75 75 75 74 74 75 75 75 75 74 74 74 74 74 75 75 75 75 75 75 75 75 75 75 75 75 75 75 75 75 75 75 75 75 75 75 75 75 75 75 76 76 76 76 76
69 67 60 59 58 53 54 56 55 58 61 63 61 61 62 63 62 61 55 54 55 56 56 57 57 56 59 59 61 61 61 64 65 65 65 67 67 68 69 71 72 73 74 74 74 75 75 76 76 75 75 75 75 75 74 74 75 74 74 75 75 74 74 74 74 74 74 75 75 74 75 75 75 75 75 75 75 75 74 75 74 75 75 75 75 75 76 75 75 75 75 75 76 76 76 76 75
61 67 66 57 54 54 53 55 58 61 62 63 62 64 63 62 62 60 58 56 55 55 56 57 55 56 57 59 61 63 63 64 64 65 66 67 68 70 71 72 73 74 74 74 74 74 74 75 76 75 75 74 74 74 74 74 75 74 74 73 74 74 74 74 74 74 74 74 75 75 75 75 75 74 75 75 75 75 75 75 75 75 75 75 75 76 76 76 76 75 75 75 76 75 76 76 75
60 61 62 55 55 55 57 57 58 60 62 61 61 64 65 64 64 57 54 54 55 55 55 56 55 57 58 60 61 63 63 64 65 65 66 67 68 71 72 72 73 73 73 73 74 73 74 74 74 75 75 74 74 75 74 74 75 74 74 74 74 75 75 75 74 74 74 74 75 75 75 75 75 75 75 75 75 75 75 75 75 75 75 75 75 75 76 75 75 75 75 75 75 75 75 75 75
61 62 59 56 56 59 59 59 60 60 61 59 60 65 66 65 60 58 58 54 55 55 55 56 57 58 57 59 62 63 63 64 65 65 67 68 69 70 71 72 72 72 73 73 72 73 74 74 74 75 74 75 74 75 74 74 74 74 74 73 75 75 75 75 74 74 75 75 75 75 75 75 75 75 75 75 75 75 75 75 75 75 75 75 75 75 75 75 75 75 75 75 75 74 74 74 73
61 62 60 53 60 59 59 58 59 58 57 60 63 66 67 65 63 62 55 55 54 55 56 58 57 58 58 61 62 61 62 64 65 66 66 67 69 69 70 71 72 72 72 72 72 73 73 74 74 74 74 74 74 74 75 75 75 75 74 74 75 75 75 75 75 74 74 75 75 74 75 75 75 75 75 75 75 75 75 75 75 75 75 75 76 76 75 75 75 74 74 74 73 73 73 73 73
63 65 60 56 57 59 60 57 56 57 57 62 63 65 65 67 66 64 59 52 55 56 57 58 58 57 57 59 60 62 63 65 66 66 67 68 68 69 70 71 72 72 72 72 72 73 73 73 74 74 74 74 73 73 73 74 74 74 74 75 75 75 75 75 74 74 75 74 74 74 75 75 75 75 75 75 75 75 75 75 75 75 75 75 75 75 76 75 74 74 74 74 74 73 73 73 73
64 62 59 55 54 55 57 56 59 58 58 63 63 67 64 64 67 62 60 55 54 56 56 55 58 55 58 59 60 62 63 65 66 67 67 68 68 69 69 70 71 71 72 72 72 72 73 73 74 74 73 73 73 73 73 73 74 74 74 74 75 74 75 75 75 75 74 75 75 74 75 75 75 75 76 75 75 75 76 75 76 76 75 75 75 75 75 75 75 74 74 74 74 74 74 74 74
64 59 52 53 52 55 57 55 57 54 58 61 62 65 62 62 66 65 67 53 53 54 55 56 56 58 58 58 62 63 64 66 67 66 67 68 68 68 69 69 70 71 71 72 72 73 73 73 73 73 73 73 73 73 72 72 74 74 74 74 75 75 74 75 75 75 74 74 75 75 76 74 73 74 74 74 75 76 75 75 76 76 76 75 75 75 75 75 74 74 74 74 74 74 75 75 75
61 54 53 51 53 54 57 56 56 59 57 59 62 66 62 60 63 63 57 52 54 53 54 54 56 57 57 59 63 63 64 65 65 66 67 67 67 67 67 68 69 70 70 71 72 73 73 73 73 72 73 73 73 72 72 72 74 74 73 74 74 74 74 75 75 75 75 74 76 74 74 74 72 73 74 76 74 75 75 76 76 76 76 76 76 76 75 75 74 74 74 74 74 75 75 74 75
57 55 52 48 54 53 59 59 58 58 58 63 64 66 63 62 63 63 58 56 50 50 52 54 54 55 56 61 63 64 64 65 66 66 66 66 66 66 67 68 68 69 70 71 71 72 72 73 72 72 73 73 72 72 72 72 71 71 72 73 74 75 75 75 74 74 73 73 74 74 74 73 73 73 73 74 75 76 76 75 76 76 76 76 76 76 76 75 75 75 75 75 75 75 75 74 74
56 54 52 53 56 58 62 62 63 64 63 62 63 64 63 63 63 66 59 57 52 50 52 54 54 54 56 62 63 64 64 65 65 65 65 65 66 66 67 67 68 69 70 70 71 72 72 72 72 72 72 72 71 71 71 71 71 71 72 73 72 72 73 73 72 72 72 73 74 74 74 74 73 72 75 75 76 75 74 75 76 76 76 76 76 76 76 76 75 75 75 75 77 78 75 74 75
55 54 53 54 58 59 62 64 66 66 64 63 63 62 61 64 64 62 63 53 53 52 53 54 54 54 56 61 63 63 63 64 64 64 64 65 65 66 66 67 68 69 70 71 72 72 72 72 72 72 72 72 71 71 71 70 71 71 72 72 72 72 72 72 72 72 72 73 74 74 74 74 74 73 74 74 74 75 74 74 74 75 75 74 76 74 74 75 76 75 75 77 75 75 75 75 75
49 49 55 58 60 58 62 65 67 66 67 63 63 60 59 65 63 62 61 55 52 53 54 55 55 56 57 59 62 63 63 63 63 63 64 64 65 65 66 67 68 69 71 70 71 72 72 72 72 72 72 72 72 71 71 72 72 71 72 72 72 72 72 72 72 72 73 73 73 74 75 74 74 73 74 74 74 74 74 73 74 74 74 74 76 75 74 74 74 75 75 75 75 76 75 75 74
50 57 59 60 60 60 65 66 67 67 65 63 62 63 65 62 62 64 63 60 61 54 54 55 56 57 57 58 58 61 62 62 63 63 64 64 65 65 66 66 67 68 70 70 71 72 72 72 72 72 72 72 72 72 72 72 71 71 72 72 72 72 72 72 72 73 73 73 73 74 73 73 73 73 73 73 73 74 73 73 73 73 73 74 74 75 74 74 74 74 74 74 75 75 75 74 74
53 56 59 60 63 62 65 65 67 66 65 64 65 67 62 62 58 62 60 63 64 57 55 55 56 57 57 57 57 57 60 61 62 63 63 64 65 66 66 66 67 69 69 70 71 72 72 72 72 72 72 72 72 72 71 71 71 71 72 73 72 73 72 72 72 73 73 73 73 74 74 73 73 73 73 73 73 74 74 74 73 73 73 73 74 74 74 73 73 73 73 73 73 73 73 73 74
55 57 60 61 64 65 65 65 65 66 66 67 66 63 63 64 62 64 62 62 59 53 55 55 56 56 56 56 56 57 57 57 59 62 63 62 64 66 66 66 67 68 69 70 71 71 71 72 72 71 71 72 72 71 71 71 71 71 73 72 72 73 72 72 72 73 73 74 74 74 74 73 73 74 73 73 74 74 74 73 73 73 73 73 73 73 73 73 73 72 72 72 72 73 72 72 72
55 57 59 61 62 64 64 65 65 66 66 66 62 62 64 65 66 63 63 63 62 54 54 55 55 55 55 55 56 56 56 56 58 61 62 62 64 65 65 66 67 68 69 70 71 71 71 71 71 71 71 72 72 72 71 71 71 71 72 72 72 73 72 73 73 72 73 73 73 74 75 74 73 73 73 74 74 74 73 73 72 72 72 72 72 72 72 72 72 71 71 71 71 72 72 71 72
56 57 62 63 64 64 65 63 63 65 66 65 62 62 63 64 63 59 62 62 64 59 53 54 54 54 54 55 55 55 55 56 58 60 61 63 64 65 66 66 67 68 69 69 70 71 72 71 71 71 72 73 72 71 71 71 71 71 72 71 73 72 72 73 73 73 73 73 73 74 74 74 73 73 73 72 73 73 73 72 71 71 71 71 72 71 71 72 71 71 71 71 72 71 71 69 71
62 62 62 64 64 65 65 64 63 63 64 65 63 62 62 63 63 60 63 63 64 64 53 53 53 53 54 54 54 55 54 56 59 60 60 63 64 65 66 66 66 68 68 68 69 71 71 70 71 71 72 72 72 71 72 71 70 71 72 72 72 72 73 72 72 72 73 73 74 73 73 73 74 73 72 72 71 72 72 71 71 70 70 71 71 71 72 73 73 73 75 75 74 73 71 71 72
61 61 60 62 63 61 62 64 65 65 63 65 64 60 59 60 60 63 64 64 63 63 52 52 52 53 53 54 54 55 54 58 59 60 61 62 64 65 65 66 67 68 68 68 69 71 70 70 71 71 71 72 71 71 71 71 70 71 72 72 71 71 72 72 72 72 73 73 72 72 73 73 73 72 71 71 72 72 71 71 70 71 71 73 74 75 75 75 74 73 73 74 73 72 71 70 71
61 60 59 58 58 57 61 65 64 63 63 64 62 53 55 59 61 63 64 64 65 67 53 51 51 52 53 53 53 55 56 57 58 60 61 62 63 65 65 66 68 67 68 69 70 70 70 71 71 71 71 71 71 71 71 71 70 71 71 71 72 71 72 72 73 73 73 72 72 72 72 73 74 72 71 70 71 71 71 70 69 70 71 74 74 74 74 75 74 73 74 71 74 72 70 69 68
44 60 57 54 52 53 61 64 63 60 64 63 61 52 53 58 60 63 65 64 65 62 53 50 50 52 53 53 55 55 57 59 58 59 61 62 63 64 65 66 66 67 68 68 69 70 71 71 71 71 71 70 71 71 71 70 71 71 70 71 72 72 72 72 73 72 72 71 72 72 72 73 73 72 71 70 71 71 70 71 71 70 73 73 74 75 73 74 74 73 74 70 71 70 69 70 68
41 39 42 52 51 52 61 63 63 59 63 65 61 53 54 57 60 65 64 64 64 64 53 50 50 52 53 54 55 55 57 59 59 59 60 61 63 64 65 66 66 67 67 68 69 70 70 71 71 71 71 71 71 71 71 71 70 70 71 74 72 72 72 72 72 71 71 71 72 72 72 72 72 71 71 71 73 71 71 71 70 71 72 74 74 74 75 73 74 74 75 72 70 66 67 64 66
39 26 45 49 53 54 57 59 63 64 63 64 60 55 55 56 61 63 65 63 64 63 53 52 51 52 53 54 55 55 57 58 59 59 60 61 63 64 65 65 66 67 67 67 69 69 70 70 71 71 71 71 71 71 71 71 71 72 73 72 72 72 71 71 71 71 71 71 71 72 72 71 72 72 72 73 74 71 71 70 71 73 76 73 74 76 73 75 73 73 73 76 71 67 66 64 64
39 50 50 52 52 53 52 57 61 63 60 53 58 55 56 58 61 63 64 64 63 60 59 56 55 53 54 55 55 56 57 58 58 59 60 61 62 63 64 67 66 66 67 68 69 69 69 70 70 71 71 71 71 72 72 71 72 72 72 72 72 70 70 70 70 71 71 70 71 71 71 72 73 72 73 75 74 74 71 71 71 71 75 74 75 74 72 73 74 73 73 74 73 70 66 66 66
44 49 49 50 53 53 52 53 56 59 59 56 55 56 58 59 61 62 63 65 63 61 59 58 58 55 55 56 56 57 57 58 59 61 60 61 62 62 64 65 65 66 67 68 68 69 69 69 71 71 70 70 71 72 72 71 71 71 71 71 71 70 70 70 70 70 70 70 70 71 72 72 74 74 75 76 74 76 72 70 70 73 74 74 73 72 73 75 76 75 72 72 74 71 67 70 70
48 50 50 51 50 50 50 56 61 58 56 55 56 53 54 58 61 62 66 66 63 61 59 59 58 59 63 60 58 59 58 58 60 61 61 61 61 62 64 64 65 66 67 67 68 68 69 69 70 70 70 70 71 71 71 70 70 71 69 69 69 70 69 71 70 70 70 70 70 71 72 72 75 76 75 75 74 76 70 70 70 74 75 73 72 71 71 73 73 74 75 75 72 71 70 71 69
48 51 52 52 52 53 57 59 60 60 56 55 58 58 58 56 59 60 65 63 62 61 57 58 59 59 59 60 62 63 62 58 60 61 61 61 61 62 63 64 65 66 66 67 67 68 68 69 69 69 70 71 70 70 70 69 68 69 69 68 68 68 68 69 69 69 69 70 71 72 74 75 75 75 75 74 73 77 70 70 71 72 73 75 74 72 73 73 74 76 76 77 72 68 66 68 68
48 50 52 52 51 50 56 58 59 61 55 53 56 57 58 57 60 60 62 63 62 62 57 58 58 58 59 60 60 62 64 63 60 61 61 61 61 61 62 63 66 65 66 66 66 67 68 68 69 69 70 70 70 70 70 69 68 69 68 68 68 68 69 69 68 68 68 70 73 74 75 75 75 74 76 74 76 73 70 70 71 73 74 74 74 77 73 79 74 75 74 71 73 69 68 68 66
47 50 53 52 52 57 58 59 61 60 56 52 56 54 56 59 63 64 64 64 65 61 59 57 59 57 59 59 60 63 64 61 60 60 61 61 62 61 61 63 64 65 65 65 66 67 68 68 69 70 70 70 70 70 69 68 68 69 68 68 68 68 68 68 67 68 71 71 72 74 75 74 74 74 75 76 74 73 69 69 72 74 74 76 72 74 74 72 74 74 73 70 69 70 71 70 67
39 51 51 50 54 53 50 55 58 59 56 53 55 53 54 59 60 61 63 65 64 63 64 60 61 58 58 58 60 59 61 60 59 60 61 61 61 60 62 63 64 64 65 65 66 67 68 69 69 70 70 70 70 70 70 68 69 69 69 68 68 67 67 68 69 70 71 71 72 74 74 74 74 74 75 75 74 74 71 70 73 73 73 75 75 74 74 73 73 73 73 75 70 65 68 65 70
26 49 49 53 54 54 53 54 58 59 57 57 55 52 52 54 56 59 61 63 63 63 64 62 62 62 60 59 58 59 59 59 59 60 61 61 60 60 62 63 64 64 65 65 66 67 68 68 69 69 70 70 69 71 70 69 71 68 68 70 70 70 70 69 69 70 70 72 72 73 73 74 74 74 74 74 76 74 72 73 73 73 73 75 75 74 74 74 74 73 72 74 71 69 67 69 68
22 22 46 53 54 56 56 56 53 50 50 55 52 45 46 52 54 57 57 62 60 63 62 60 61 60 60 60 60 58 59 60 60 60 61 61 61 61 62 63 64 64 65 65 66 67 68 69 69 69 69 69 69 70 69 70 72 67 68 67 66 66 67 67 67 68 69 70 71 73 73 74 74 73 73 73 74 75 74 74 73 73 73 73 75 75 75 75 73 71 72 73 72 73 67 69 63
19 19 35 53 54 56 55 54 50 46 45 51 54 43 43 51 51 53 55 58 58 63 61 59 60 61 60 60 59 57 57 58 60 61 61 61 61 61 61 62 63 64 65 65 66 67 68 69 69 69 69 69 69 69 70 71 70 68 67 66 66 66 66 67 68 68 69 71 72 72 72 73 74 72 72 73 73 75 74 74 72 73 74 73 76 74 73 73 74 73 76 73 73 76 71 66 64
18 23 53 54 55 55 54 53 50 48 54 55 55 51 46 45 49 52 53 56 57 58 60 61 61 60 59 60 59 57 57 58 60 61 61 61 62 61 61 61 63 64 65 65 66 68 69 69 69 69 69 70 69 70 72 71 70 68 67 66 67 67 66 67 68 68 70 72 72 72 72 72 72 73 71 73 73 75 75 74 73 73 72 73 76 74 73 74 75 75 76 76 75 75 71 68 68
21 52 54 54 54 54 53 51 51 52 50 47 51 54 47 47 49 54 54 54 56 56 56 58 60 60 60 60 60 57 57 58 60 61 61 62 63 62 61 61 62 64 65 65 66 68 69 69 70 70 70 70 70 72 71 70 71 69 67 67 68 68 67 69 69 70 71 72 71 71 71 71 71 72 72 72 73 75 77 75 74 74 74 75 77 74 75 75 75 74 74 71 71 74 76 73 70
16 50 53 53 54 54 53 50 50 51 45 44 49 53 45 46 50 55 56 52 52 54 55 56 58 59 59 60 61 57 57 59 60 61 61 62 63 63 62 62 62 63 64 66 66 67 68 69 70 70 69 70 71 72 72 71 72 71 69 69 68 68 71 71 69 69 70 71 70 70 70 70 71 71 73 73 73 75 76 76 75 74 75 77 76 73 74 73 73 74 74 73 72 72 74 74 71
16 19 27 44 49 52 49 49 49 44 37 41 49 52 47 42 49 53 54 53 51 51 53 55 57 59 59 60 61 59 57 58 60 61 61 62 64 64 64 63 62 63 64 65 66 67 68 69 69 69 69 70 72 71 71 71 71 71 69 69 68 69 71 70 69 69 70 70 69 69 69 70 71 71 73 73 73 74 75 77 76 76 76 78 76 73 73 73 74 74 74 74 74 74 73 73 73
11 16 30 24 31 40 39 40 42 32 31 39 49 52 50 40 46 52 55 55 53 51 51 53 56 58 59 60 62 59 58 59 60 61 61 62 64 64 64 63 63 63 63 65 66 67 68 68 69 70 70 70 71 71 71 71 71 71 70 69 69 70 70 69 68 69 70 69 70 69 70 71 71 72 72 73 73 73 75 75 76 75 76 75 74 73 74 74 74 76 74 73 74 74 74 76 73
9 26 30 20 21 31 26 33 26 30 29 39 50 52 48 47 46 52 54 55 55 54 53 53 54 57 58 59 61 60 59 59 60 61 61 62 63 63 63 63 63 64 64 65 67 67 67 68 69 70 70 70 71 71 71 71 71 71 71 69 70 71 70 70 70 70 70 70 70 69 71 71 71 71 72 72 72 72 75 74 74 74 75 75 74 74 74 74 74 75 73 73 74 74 74 74 72
12 15 30 24 21 21 21 30 32 34 43 48 51 52 46 48 49 50 52 54 55 54 54 55 55 56 57 57 60 60 58 59 60 61 61 62 63 63 63 64 63 64 64 65 67 68 68 68 68 70 70 70 71 71 71 71 70 70 71 69 71 72 71 70 71 71 71 70 70 70 71 71 72 71 72 72 72 72 74 74 75 75 75 75 76 74 74 74 74 74 74 74 74 74 75 75 74
12 15 20 21 26 23 19 26 22 27 36 47 50 45 43 43 46 51 53 53 54 55 55 56 57 57 57 56 59 60 57 59 60 60 61 63 63 63 63 63 64 64 64 66 67 68 68 68 68 69 70 70 71 70 71 71 70 70 70 70 71 71 71 71 71 72 71 71 71 71 71 72 71 72 72 72 73 72 73 75 75 76 76 77 77 76 76 75 75 75 75 76 75 74 74 76 75
15 21 22 18 18 29 15 26 28 39 41 43 41 40 44 44 51 56 57 57 57 59 56 58 58 59 58 57 59 61 58 60 60 60 62 63 63 64 64 63 64 64 64 66 67 68 68 69 68 69 70 70 70 71 71 71 70 70 70 71 70 71 73 71 72 73 72 72 72 72 72 72 71 72 72 72 72 72 74 74 76 76 77 77 77 77 76 75 75 75 75 76 75 77 75 74 74
14 9 15 15 21 17 22 33 34 39 32 34 44 43 46 49 50 53 56 57 58 58 58 57 58 59 59 58 59 60 58 59 60 60 62 63 63 64 64 64 63 64 64 66 67 68 68 69 69 68 70 70 70 71 70 71 71 70 70 71 70 72 72 71 71 71 71 72 72 72 72 72 72 72 72 73 73 72 73 74 74 75 76 77 77 77 77 76 75 76 76 74 75 75 75 74 74
12 11 9 13 18 22 20 17 28 25 17 23 43 41 43 43 42 54 53 55 57 59 59 60 58 59 59 59 59 60 60 59 60 61 61 63 63 64 64 64 63 64 64 66 67 68 68 69 69 68 71 69 70 70 70 70 71 69 70 71 70 71 71 70 70 71 71 71 71 72 72 72 71 71 72 72 72 72 73 76 74 74 76 76 77 77 76 76 75 75 75 75 75 75 74 76 77
25 21 17 18 17 12 22 24 16 17 21 24 42 45 45 44 45 51 51 54 56 58 59 59 59 59 59 60 60 62 61 60 60 60 61 62 63 63 64 64 64 64 65 66 67 68 68 69 70 69 70 70 70 70 70 70 71 69 69 70 70 70 70 70 70 71 70 70 70 70 71 71 71 71 72 72 72 72 72 75 73 74 75 76 76 76 75 75 76 75 75 75 75 75 74 74 74
33 36 36 33 16 25 24 24 29 21 19 26 29 41 39 48 50 56 55 56 57 59 58 59 60 61 61 61 61 63 63 63 63 65 65 62 62 63 63 64 63 64 64 65 67 68 68 69 70 69 70 70 70 70 71 70 70 69 69 70 70 71 71 69 70 69 69 69 70 70 70 70 70 71 71 71 72 72 72 74 73 73 73 74 75 75 74 74 76 75 74 75 75 75 75 74 73
31 34 36 37 33 31 23 30 23 26 25 23 31 34 41 48 57 58 57 58 59 59 59 60 61 61 61 62 63 64 64 63 63 62 61 62 62 63 64 64 64 64 65 66 67 68 68 69 70 70 70 70 70 70 70 70 70 70 69 70 70 70 70 69 69 68 67 68 68 70 69 69 70 69 70 70 70 72 72 72 73 73 73 73 74 74 74 74 75 75 74 74 74 75 74 74 75
33 35 37 38 37 33 28 28 34 36 33 29 27 26 42 51 60 58 58 59 60 61 60 61 61 62 63 64 64 63 64 65 62 62 64 62 62 62 63 64 64 64 64 66 66 67 68 68 70 70 70 71 70 70 70 70 70 70 69 69 69 70 69 69 68 68 67 67 67 68 67 68 68 68 68 69 69 71 72 72 71 72 72 72 72 73 73 73 74 74 74 74 74 74 74 74 74